Year,Month,Day,Hour,Minute,Value (Times are PST for temperature in C)
2015,04,19,00,00,7.90
2015,04,19,00,01,7.80
2015,04,19,00,02,7.80
2015,04,19,00,03,7.80
2015,04,19,00,04,7.80
2015,04,19,00,05,7.80
2015,04,19,00,06,7.80
2015,04,19,00,07,7.80
2015,04,19,00,08,7.80
2015,04,19,00,09,7.70
2015,04,19,00,10,7.70
2015,04,19,00,11,7.70
2015,04,19,00,12,7.70
2015,04,19,00,13,7.70
2015,04,19,00,14,7.70
2015,04,19,00,15,7.70
2015,04,19,00,16,7.70
2015,04,19,00,17,7.70
2015,04,19,00,18,7.70
2015,04,19,00,19,7.70
2015,04,19,00,20,7.70
2015,04,19,00,21,7.70
2015,04,19,00,22,7.70
2015,04,19,00,23,7.70
2015,04,19,00,24,7.60
2015,04,19,00,25,7.60
2015,04,19,00,26,7.60
2015,04,19,00,27,7.60
2015,04,19,00,28,7.60
2015,04,19,00,29,7.60
2015,04,19,00,30,7.60
2015,04,19,00,31,7.50
2015,04,19,00,32,7.60
2015,04,19,00,33,7.50
2015,04,19,00,34,7.60
2015,04,19,00,35,7.60
2015,04,19,00,36,7.60
2015,04,19,00,37,7.60
2015,04,19,00,38,7.60
2015,04,19,00,39,7.60
2015,04,19,00,40,7.60
2015,04,19,00,41,7.60
2015,04,19,00,42,7.50
2015,04,19,00,43,7.50
2015,04,19,00,44,7.50
2015,04,19,00,45,7.50
2015,04,19,00,46,7.50
2015,04,19,00,47,7.40
2015,04,19,00,48,7.40
2015,04,19,00,49,7.40
2015,04,19,00,50,7.40
2015,04,19,00,51,7.40
2015,04,19,00,52,7.40
2015,04,19,00,53,7.30
2015,04,19,00,54,7.30
2015,04,19,00,55,7.30
2015,04,19,00,56,7.30
2015,04,19,00,57,7.30
2015,04,19,00,58,7.30
2015,04,19,00,59,7.20
2015,04,19,01,00,7.20
2015,04,19,01,01,7.20
2015,04,19,01,02,7.20
2015,04,19,01,03,7.20
2015,04,19,01,04,7.10
2015,04,19,01,05,7.10
2015,04,19,01,06,7.10
2015,04,19,01,07,7.10
2015,04,19,01,08,7.10
2015,04,19,01,09,7.10
2015,04,19,01,10,7.10
2015,04,19,01,11,7.10
2015,04,19,01,12,7.00
2015,04,19,01,13,7.00
2015,04,19,01,14,7.00
2015,04,19,01,15,7.00
2015,04,19,01,16,7.00
2015,04,19,01,17,7.00
2015,04,19,01,18,6.90
2015,04,19,01,19,6.90
2015,04,19,01,20,6.90
2015,04,19,01,21,6.90
2015,04,19,01,22,6.90
2015,04,19,01,23,6.90
2015,04,19,01,24,6.90
2015,04,19,01,25,6.80
2015,04,19,01,26,6.80
2015,04,19,01,27,6.80
2015,04,19,01,28,6.80
2015,04,19,01,29,6.80
2015,04,19,01,30,6.80
2015,04,19,01,31,6.80
2015,04,19,01,32,6.80
2015,04,19,01,33,6.70
2015,04,19,01,34,6.70
2015,04,19,01,35,6.70
2015,04,19,01,36,6.70
2015,04,19,01,37,6.70
2015,04,19,01,38,6.70
2015,04,19,01,39,6.60
2015,04,19,01,40,6.60
2015,04,19,01,41,6.60
2015,04,19,01,42,6.60
2015,04,19,01,43,6.60
2015,04,19,01,44,6.60
2015,04,19,01,45,6.60
2015,04,19,01,46,6.50
2015,04,19,01,47,6.50
2015,04,19,01,48,6.50
2015,04,19,01,49,6.50
2015,04,19,01,50,6.50
2015,04,19,01,51,6.40
2015,04,19,01,52,6.40
2015,04,19,01,53,6.40
2015,04,19,01,54,6.40
2015,04,19,01,55,6.40
2015,04,19,01,56,6.40
2015,04,19,01,57,6.30
2015,04,19,01,58,6.30
2015,04,19,01,59,6.30
2015,04,19,02,00,6.30
2015,04,19,02,01,6.30
2015,04,19,02,02,6.30
2015,04,19,02,03,6.30
2015,04,19,02,04,6.30
2015,04,19,02,05,6.30
2015,04,19,02,06,6.30
2015,04,19,02,07,6.30
2015,04,19,02,08,6.20
2015,04,19,02,09,6.20
2015,04,19,02,10,6.20
2015,04,19,02,11,6.20
2015,04,19,02,12,6.20
2015,04,19,02,13,6.20
2015,04,19,02,14,6.20
2015,04,19,02,15,6.20
2015,04,19,02,16,6.10
2015,04,19,02,17,6.10
2015,04,19,02,18,6.10
2015,04,19,02,19,6.10
2015,04,19,02,20,6.10
2015,04,19,02,21,6.10
2015,04,19,02,22,6.10
2015,04,19,02,23,6.10
2015,04,19,02,24,6.10
2015,04,19,02,25,6.00
2015,04,19,02,26,6.00
2015,04,19,02,27,6.00
2015,04,19,02,28,6.00
2015,04,19,02,29,6.00
2015,04,19,02,30,5.90
2015,04,19,02,31,5.90
2015,04,19,02,32,5.90
2015,04,19,02,33,5.90
2015,04,19,02,34,5.90
2015,04,19,02,35,5.90
2015,04,19,02,36,5.80
2015,04,19,02,37,5.80
2015,04,19,02,38,5.80
2015,04,19,02,39,5.80
2015,04,19,02,40,5.80
2015,04,19,02,41,5.80
2015,04,19,02,42,5.80
2015,04,19,02,43,5.80
2015,04,19,02,44,5.80
2015,04,19,02,45,5.80
2015,04,19,02,46,5.80
2015,04,19,02,47,5.80
2015,04,19,02,48,5.80
2015,04,19,02,49,5.80
2015,04,19,02,50,5.80
2015,04,19,02,51,5.80
2015,04,19,02,52,5.70
2015,04,19,02,53,5.70
2015,04,19,02,54,5.70
2015,04,19,02,55,5.70
2015,04,19,02,56,5.70
2015,04,19,02,57,5.70
2015,04,19,02,58,5.70
2015,04,19,02,59,5.70
2015,04,19,03,00,5.60
2015,04,19,03,01,5.60
2015,04,19,03,02,5.60
2015,04,19,03,03,5.60
2015,04,19,03,04,5.60
2015,04,19,03,05,5.60
2015,04,19,03,06,5.60
2015,04,19,03,07,5.60
2015,04,19,03,08,5.50
2015,04,19,03,09,5.50
2015,04,19,03,10,5.50
2015,04,19,03,11,5.50
2015,04,19,03,12,5.50
2015,04,19,03,13,5.50
2015,04,19,03,14,5.50
2015,04,19,03,15,5.40
2015,04,19,03,16,5.40
2015,04,19,03,17,5.40
2015,04,19,03,18,5.40
2015,04,19,03,19,5.40
2015,04,19,03,20,5.40
2015,04,19,03,21,5.40
2015,04,19,03,22,5.30
2015,04,19,03,23,5.30
2015,04,19,03,24,5.30
2015,04,19,03,25,5.30
2015,04,19,03,26,5.30
2015,04,19,03,27,5.30
2015,04,19,03,28,5.30
2015,04,19,03,29,5.30
2015,04,19,03,30,5.30
2015,04,19,03,31,5.30
2015,04,19,03,32,5.30
2015,04,19,03,33,5.30
2015,04,19,03,34,5.30
2015,04,19,03,35,5.30
2015,04,19,03,36,5.20
2015,04,19,03,37,5.20
2015,04,19,03,38,5.20
2015,04,19,03,39,5.20
2015,04,19,03,40,5.20
2015,04,19,03,41,5.20
2015,04,19,03,42,5.20
2015,04,19,03,43,5.20
2015,04,19,03,44,5.20
2015,04,19,03,45,5.20
2015,04,19,03,46,5.20
2015,04,19,03,47,5.20
2015,04,19,03,48,5.20
2015,04,19,03,49,5.20
2015,04,19,03,50,5.20
2015,04,19,03,51,5.20
2015,04,19,03,52,5.20
2015,04,19,03,53,5.20
2015,04,19,03,54,5.20
2015,04,19,03,55,5.20
2015,04,19,03,56,5.10
2015,04,19,03,57,5.10
2015,04,19,03,58,5.10
2015,04,19,03,59,5.10
2015,04,19,04,00,5.10
2015,04,19,04,01,5.10
2015,04,19,04,02,5.10
2015,04,19,04,03,5.10
2015,04,19,04,04,5.10
2015,04,19,04,05,5.10
2015,04,19,04,06,5.00
2015,04,19,04,07,5.00
2015,04,19,04,08,5.00
2015,04,19,04,09,5.00
2015,04,19,04,10,5.00
2015,04,19,04,11,4.90
2015,04,19,04,12,4.90
2015,04,19,04,13,4.90
2015,04,19,04,14,4.90
2015,04,19,04,15,4.90
2015,04,19,04,16,4.90
2015,04,19,04,17,4.90
2015,04,19,04,18,4.90
2015,04,19,04,19,4.80
2015,04,19,04,20,4.80
2015,04,19,04,21,4.80
2015,04,19,04,22,4.80
2015,04,19,04,23,4.80
2015,04,19,04,24,4.80
2015,04,19,04,25,4.90
2015,04,19,04,26,4.90
2015,04,19,04,27,4.90
2015,04,19,04,28,4.90
2015,04,19,04,29,4.90
2015,04,19,04,30,4.90
2015,04,19,04,31,4.90
2015,04,19,04,32,4.90
2015,04,19,04,33,4.90
2015,04,19,04,34,4.90
2015,04,19,04,35,4.90
2015,04,19,04,36,4.90
2015,04,19,04,37,4.80
2015,04,19,04,38,4.80
2015,04,19,04,39,4.80
2015,04,19,04,40,4.80
2015,04,19,04,41,4.80
2015,04,19,04,42,4.80
2015,04,19,04,43,4.70
2015,04,19,04,44,4.70
2015,04,19,04,45,4.70
2015,04,19,04,46,4.70
2015,04,19,04,47,4.70
2015,04,19,04,48,4.70
2015,04,19,04,49,4.70
2015,04,19,04,50,4.70
2015,04,19,04,51,4.70
2015,04,19,04,52,4.70
2015,04,19,04,53,4.70
2015,04,19,04,54,4.70
2015,04,19,04,55,4.70
2015,04,19,04,56,4.70
2015,04,19,04,57,4.70
2015,04,19,04,58,4.70
2015,04,19,04,59,4.70
2015,04,19,05,00,4.80
2015,04,19,05,01,4.80
2015,04,19,05,02,4.80
2015,04,19,05,03,4.80
2015,04,19,05,04,4.80
2015,04,19,05,05,4.80
2015,04,19,05,06,4.90
2015,04,19,05,07,4.90
2015,04,19,05,08,4.90
2015,04,19,05,09,4.90
2015,04,19,05,10,4.90
2015,04,19,05,11,4.90
2015,04,19,05,12,4.90
2015,04,19,05,13,4.90
2015,04,19,05,14,4.90
2015,04,19,05,15,4.90
2015,04,19,05,16,4.90
2015,04,19,05,17,4.90
2015,04,19,05,18,4.90
2015,04,19,05,19,4.90
2015,04,19,05,20,4.90
2015,04,19,05,21,4.90
2015,04,19,05,22,4.90
2015,04,19,05,23,4.90
2015,04,19,05,24,4.90
2015,04,19,05,25,4.90
2015,04,19,05,26,4.90
2015,04,19,05,27,4.80
2015,04,19,05,28,4.80
2015,04,19,05,29,4.80
2015,04,19,05,30,4.80
2015,04,19,05,31,4.80
2015,04,19,05,32,4.80
2015,04,19,05,33,4.80
2015,04,19,05,34,4.80
2015,04,19,05,35,4.80
2015,04,19,05,36,4.80
2015,04,19,05,37,4.80
2015,04,19,05,38,4.80
2015,04,19,05,39,4.80
2015,04,19,05,40,4.80
2015,04,19,05,41,4.80
2015,04,19,05,42,4.80
2015,04,19,05,43,4.80
2015,04,19,05,44,4.70
2015,04,19,05,45,4.80
2015,04,19,05,46,4.80
2015,04,19,05,47,4.80
2015,04,19,05,48,4.80
2015,04,19,05,49,4.80
2015,04,19,05,50,4.90
2015,04,19,05,51,4.90
2015,04,19,05,52,4.90
2015,04,19,05,53,4.90
2015,04,19,05,54,5.00
2015,04,19,05,55,5.00
2015,04,19,05,56,5.00
2015,04,19,05,57,4.90
2015,04,19,05,58,4.90
2015,04,19,05,59,4.90
2015,04,19,06,00,4.90
2015,04,19,06,01,4.90
2015,04,19,06,02,4.90
2015,04,19,06,03,4.90
2015,04,19,06,04,4.90
2015,04,19,06,05,4.90
2015,04,19,06,06,4.80
2015,04,19,06,07,4.80
2015,04,19,06,08,4.80
2015,04,19,06,09,4.80
2015,04,19,06,10,4.80
2015,04,19,06,11,4.80
2015,04,19,06,12,4.80
2015,04,19,06,13,4.80
2015,04,19,06,14,4.70
2015,04,19,06,15,4.70
2015,04,19,06,16,4.70
2015,04,19,06,17,4.70
2015,04,19,06,18,4.70
2015,04,19,06,19,4.70
2015,04,19,06,20,4.70
2015,04,19,06,21,4.70
2015,04,19,06,22,4.70
2015,04,19,06,23,4.60
2015,04,19,06,24,4.60
2015,04,19,06,25,4.60
2015,04,19,06,26,4.60
2015,04,19,06,27,4.60
2015,04,19,06,28,4.60
2015,04,19,06,29,4.60
2015,04,19,06,30,4.60
2015,04,19,06,31,4.60
2015,04,19,06,32,4.60
2015,04,19,06,33,4.60
2015,04,19,06,34,4.60
2015,04,19,06,35,4.60
2015,04,19,06,36,4.60
2015,04,19,06,37,4.60
2015,04,19,06,38,4.60
2015,04,19,06,39,4.60
2015,04,19,06,40,4.60
2015,04,19,06,41,4.60
2015,04,19,06,42,4.60
2015,04,19,06,43,4.60
2015,04,19,06,44,4.60
2015,04,19,06,45,4.60
2015,04,19,06,46,4.60
2015,04,19,06,47,4.60
2015,04,19,06,48,4.60
2015,04,19,06,49,4.60
2015,04,19,06,50,4.60
2015,04,19,06,51,4.60
2015,04,19,06,52,4.60
2015,04,19,06,53,4.70
2015,04,19,06,54,4.70
2015,04,19,06,55,4.70
2015,04,19,06,56,4.70
2015,04,19,06,57,4.70
2015,04,19,06,58,4.70
2015,04,19,06,59,4.70
2015,04,19,07,00,4.70
2015,04,19,07,01,4.80
2015,04,19,07,02,4.80
2015,04,19,07,03,4.80
2015,04,19,07,04,4.80
2015,04,19,07,05,4.80
2015,04,19,07,06,4.80
2015,04,19,07,07,4.80
2015,04,19,07,08,4.90
2015,04,19,07,09,4.90
2015,04,19,07,10,4.90
2015,04,19,07,11,4.90
2015,04,19,07,12,4.90
2015,04,19,07,13,4.90
2015,04,19,07,14,5.00
2015,04,19,07,15,5.00
2015,04,19,07,16,5.00
2015,04,19,07,17,5.00
2015,04,19,07,18,5.10
2015,04,19,07,19,5.10
2015,04,19,07,20,5.10
2015,04,19,07,21,5.20
2015,04,19,07,22,5.20
2015,04,19,07,23,5.20
2015,04,19,07,24,5.30
2015,04,19,07,25,5.30
2015,04,19,07,26,5.30
2015,04,19,07,27,5.40
2015,04,19,07,28,5.40
2015,04,19,07,29,5.40
2015,04,19,07,30,5.40
2015,04,19,07,31,5.50
2015,04,19,07,32,5.50
2015,04,19,07,33,5.60
2015,04,19,07,34,5.60
2015,04,19,07,35,5.60
2015,04,19,07,36,5.70
2015,04,19,07,37,5.70
2015,04,19,07,38,5.80
2015,04,19,07,39,5.80
2015,04,19,07,40,5.80
2015,04,19,07,41,5.90
2015,04,19,07,42,5.90
2015,04,19,07,43,6.00
2015,04,19,07,44,6.00
2015,04,19,07,45,6.10
2015,04,19,07,46,6.10
2015,04,19,07,47,6.10
2015,04,19,07,48,6.20
2015,04,19,07,49,6.20
2015,04,19,07,50,6.20
2015,04,19,07,51,6.30
2015,04,19,07,52,6.30
2015,04,19,07,53,6.30
2015,04,19,07,54,6.30
2015,04,19,07,55,6.30
2015,04,19,07,56,6.40
2015,04,19,07,57,6.40
2015,04,19,07,58,6.40
2015,04,19,07,59,6.40
2015,04,19,08,00,6.50
2015,04,19,08,01,6.50
2015,04,19,08,02,6.50
2015,04,19,08,03,6.60
2015,04,19,08,04,6.60
2015,04,19,08,05,6.60
2015,04,19,08,06,6.70
2015,04,19,08,07,6.70
2015,04,19,08,08,6.70
2015,04,19,08,09,6.70
2015,04,19,08,10,6.80
2015,04,19,08,11,6.80
2015,04,19,08,12,6.80
2015,04,19,08,13,6.80
2015,04,19,08,14,6.80
2015,04,19,08,15,6.90
2015,04,19,08,16,6.90
2015,04,19,08,17,6.90
2015,04,19,08,18,7.00
2015,04,19,08,19,7.00
2015,04,19,08,20,7.10
2015,04,19,08,21,7.20
2015,04,19,08,22,7.20
2015,04,19,08,23,7.30
2015,04,19,08,24,7.30
2015,04,19,08,25,7.40
2015,04,19,08,26,7.50
2015,04,19,08,27,7.50
2015,04,19,08,28,7.60
2015,04,19,08,29,7.60
2015,04,19,08,30,7.70
2015,04,19,08,31,7.70
2015,04,19,08,32,7.80
2015,04,19,08,33,7.80
2015,04,19,08,34,7.90
2015,04,19,08,35,7.90
2015,04,19,08,36,8.00
2015,04,19,08,37,8.00
2015,04,19,08,38,8.00
2015,04,19,08,39,8.10
2015,04,19,08,40,8.10
2015,04,19,08,41,8.10
2015,04,19,08,42,8.10
2015,04,19,08,43,8.10
2015,04,19,08,44,8.20
2015,04,19,08,45,8.20
2015,04,19,08,46,8.20
2015,04,19,08,47,8.20
2015,04,19,08,48,8.20
2015,04,19,08,49,8.20
2015,04,19,08,50,8.30
2015,04,19,08,51,8.30
2015,04,19,08,52,8.30
2015,04,19,08,53,8.30
2015,04,19,08,54,8.30
2015,04,19,08,55,8.40
2015,04,19,08,56,8.40
2015,04,19,08,57,8.50
2015,04,19,08,58,8.50
2015,04,19,08,59,8.60
2015,04,19,09,00,8.60
2015,04,19,09,01,8.70
2015,04,19,09,02,8.80
2015,04,19,09,03,8.90
2015,04,19,09,04,9.00
2015,04,19,09,05,9.10
2015,04,19,09,06,9.20
2015,04,19,09,07,9.30
2015,04,19,09,08,9.40
2015,04,19,09,09,9.50
2015,04,19,09,10,9.50
2015,04,19,09,11,9.60
2015,04,19,09,12,9.70
2015,04,19,09,13,9.80
2015,04,19,09,14,9.80
2015,04,19,09,15,9.90
2015,04,19,09,16,10.00
2015,04,19,09,17,10.10
2015,04,19,09,18,10.20
2015,04,19,09,19,10.30
2015,04,19,09,20,10.40
2015,04,19,09,21,10.50
2015,04,19,09,22,10.70
2015,04,19,09,23,10.80
2015,04,19,09,24,11.00
2015,04,19,09,25,11.20
2015,04,19,09,26,11.30
2015,04,19,09,27,11.50
2015,04,19,09,28,11.60
2015,04,19,09,29,11.80
2015,04,19,09,30,11.90
2015,04,19,09,31,12.00
2015,04,19,09,32,12.10
2015,04,19,09,33,12.10
2015,04,19,09,34,12.20
2015,04,19,09,35,12.30
2015,04,19,09,36,12.50
2015,04,19,09,37,12.50
2015,04,19,09,38,12.60
2015,04,19,09,39,12.70
2015,04,19,09,40,12.80
2015,04,19,09,41,12.80
2015,04,19,09,42,12.90
2015,04,19,09,43,13.00
2015,04,19,09,44,13.00
2015,04,19,09,45,13.10
2015,04,19,09,46,13.20
2015,04,19,09,47,13.20
2015,04,19,09,48,13.30
2015,04,19,09,49,13.30
2015,04,19,09,50,13.40
2015,04,19,09,51,13.40
2015,04,19,09,52,13.50
2015,04,19,09,53,13.60
2015,04,19,09,54,13.70
2015,04,19,09,55,13.70
2015,04,19,09,56,13.80
2015,04,19,09,57,13.90
2015,04,19,09,58,13.90
2015,04,19,09,59,14.00
2015,04,19,10,00,14.10
2015,04,19,10,01,14.20
2015,04,19,10,02,14.30
2015,04,19,10,03,14.30
2015,04,19,10,04,14.40
2015,04,19,10,05,14.40
2015,04,19,10,06,14.50
2015,04,19,10,07,14.50
2015,04,19,10,08,14.60
2015,04,19,10,09,14.60
2015,04,19,10,10,14.60
2015,04,19,10,11,14.60
2015,04,19,10,12,14.60
2015,04,19,10,13,14.70
2015,04,19,10,14,14.70
2015,04,19,10,15,14.70
2015,04,19,10,16,14.80
2015,04,19,10,17,14.80
2015,04,19,10,18,14.90
2015,04,19,10,19,14.90
2015,04,19,10,20,15.00
2015,04,19,10,21,15.10
2015,04,19,10,22,15.10
2015,04,19,10,23,15.20
2015,04,19,10,24,15.20
2015,04,19,10,25,15.30
2015,04,19,10,26,15.30
2015,04,19,10,27,15.40
2015,04,19,10,28,15.40
2015,04,19,10,29,15.50
2015,04,19,10,30,15.60
2015,04,19,10,31,15.70
2015,04,19,10,32,15.90
2015,04,19,10,33,16.00
2015,04,19,10,34,16.20
2015,04,19,10,35,16.30
2015,04,19,10,36,16.40
2015,04,19,10,37,16.50
2015,04,19,10,38,16.60
2015,04,19,10,39,16.80
2015,04,19,10,40,16.80
2015,04,19,10,41,16.90
2015,04,19,10,42,16.90
2015,04,19,10,43,16.90
2015,04,19,10,44,16.90
2015,04,19,10,45,16.90
2015,04,19,10,46,16.80
2015,04,19,10,47,16.90
2015,04,19,10,48,16.90
2015,04,19,10,49,17.00
2015,04,19,10,50,17.10
2015,04,19,10,51,17.20
2015,04,19,10,52,17.20
2015,04,19,10,53,17.30
2015,04,19,10,54,17.30
2015,04,19,10,55,17.40
2015,04,19,10,56,17.50
2015,04,19,10,57,17.60
2015,04,19,10,58,17.60
2015,04,19,10,59,17.70
2015,04,19,11,00,17.70
2015,04,19,11,01,17.70
2015,04,19,11,02,17.70
2015,04,19,11,03,17.80
2015,04,19,11,04,17.80
2015,04,19,11,05,17.80
2015,04,19,11,06,17.90
2015,04,19,11,07,17.90
2015,04,19,11,08,17.90
2015,04,19,11,09,17.90
2015,04,19,11,10,17.90
2015,04,19,11,11,17.90
2015,04,19,11,12,17.80
2015,04,19,11,13,17.80
2015,04,19,11,14,17.90
2015,04,19,11,15,17.90
2015,04,19,11,16,18.00
2015,04,19,11,17,18.00
2015,04,19,11,18,18.00
2015,04,19,11,19,18.00
2015,04,19,11,20,18.00
2015,04,19,11,21,18.10
2015,04,19,11,22,18.10
2015,04,19,11,23,18.00
2015,04,19,11,24,18.10
2015,04,19,11,25,18.10
2015,04,19,11,26,18.10
2015,04,19,11,27,18.10
2015,04,19,11,28,18.10
2015,04,19,11,29,18.10
2015,04,19,11,30,18.10
2015,04,19,11,31,18.20
2015,04,19,11,32,18.20
2015,04,19,11,33,18.20
2015,04,19,11,34,18.30
2015,04,19,11,35,18.30
2015,04,19,11,36,18.30
2015,04,19,11,37,18.30
2015,04,19,11,38,18.30
2015,04,19,11,39,18.30
2015,04,19,11,40,18.30
2015,04,19,11,41,18.30
2015,04,19,11,42,18.40
2015,04,19,11,43,18.40
2015,04,19,11,44,18.40
2015,04,19,11,45,18.40
2015,04,19,11,46,18.50
2015,04,19,11,47,18.50
2015,04,19,11,48,18.50
2015,04,19,11,49,18.60
2015,04,19,11,50,18.60
2015,04,19,11,51,18.60
2015,04,19,11,52,18.60
2015,04,19,11,53,18.60
2015,04,19,11,54,18.70
2015,04,19,11,55,18.70
2015,04,19,11,56,18.80
2015,04,19,11,57,18.90
2015,04,19,11,58,18.90
2015,04,19,11,59,19.00
2015,04,19,12,00,19.00
2015,04,19,12,01,19.00
2015,04,19,12,02,19.00
2015,04,19,12,03,19.00
2015,04,19,12,04,19.00
2015,04,19,12,05,19.10
2015,04,19,12,06,19.10
2015,04,19,12,07,19.10
2015,04,19,12,08,19.20
2015,04,19,12,09,19.20
2015,04,19,12,10,19.20
2015,04,19,12,11,19.30
2015,04,19,12,12,19.30
2015,04,19,12,13,19.40
2015,04,19,12,14,19.40
2015,04,19,12,15,19.40
2015,04,19,12,16,19.40
2015,04,19,12,17,19.40
2015,04,19,12,18,19.50
2015,04,19,12,19,19.50
2015,04,19,12,20,19.50
2015,04,19,12,21,19.60
2015,04,19,12,22,19.60
2015,04,19,12,23,19.60
2015,04,19,12,24,19.50
2015,04,19,12,25,19.60
2015,04,19,12,26,19.60
2015,04,19,12,27,19.60
2015,04,19,12,28,19.60
2015,04,19,12,29,19.60
2015,04,19,12,30,19.70
2015,04,19,12,31,19.70
2015,04,19,12,32,19.70
2015,04,19,12,33,19.80
2015,04,19,12,34,19.80
2015,04,19,12,35,19.80
2015,04,19,12,36,19.90
2015,04,19,12,37,19.90
2015,04,19,12,38,20.00
2015,04,19,12,39,20.00
2015,04,19,12,40,20.00
2015,04,19,12,41,20.00
2015,04,19,12,42,20.00
2015,04,19,12,43,20.10
2015,04,19,12,44,20.10
2015,04,19,12,45,20.20
2015,04,19,12,46,20.20
2015,04,19,12,47,20.20
2015,04,19,12,48,20.20
2015,04,19,12,49,20.20
2015,04,19,12,50,20.20
2015,04,19,12,51,20.20
2015,04,19,12,52,20.20
2015,04,19,12,53,20.20
2015,04,19,12,54,20.20
2015,04,19,12,55,20.20
2015,04,19,12,56,20.20
2015,04,19,12,57,20.20
2015,04,19,12,58,20.20
2015,04,19,12,59,20.20
2015,04,19,13,00,20.20
2015,04,19,13,01,20.20
2015,04,19,13,02,20.20
2015,04,19,13,03,20.20
2015,04,19,13,04,20.20
2015,04,19,13,05,20.20
2015,04,19,13,06,20.20
2015,04,19,13,07,20.20
2015,04,19,13,08,20.20
2015,04,19,13,09,20.20
2015,04,19,13,10,20.20
2015,04,19,13,11,20.20
2015,04,19,13,12,20.20
2015,04,19,13,13,20.10
2015,04,19,13,14,20.10
2015,04,19,13,15,20.10
2015,04,19,13,16,20.10
2015,04,19,13,17,20.10
2015,04,19,13,18,20.10
2015,04,19,13,19,20.00
2015,04,19,13,20,20.00
2015,04,19,13,21,19.90
2015,04,19,13,22,19.90
2015,04,19,13,23,19.90
2015,04,19,13,24,19.80
2015,04,19,13,25,19.80
2015,04,19,13,26,19.80
2015,04,19,13,27,19.80
2015,04,19,13,28,19.80
2015,04,19,13,29,19.80
2015,04,19,13,30,19.80
2015,04,19,13,31,19.80
2015,04,19,13,32,19.80
2015,04,19,13,33,19.80
2015,04,19,13,34,19.80
2015,04,19,13,35,19.80
2015,04,19,13,36,19.90
2015,04,19,13,37,19.90
2015,04,19,13,38,19.90
2015,04,19,13,39,19.90
2015,04,19,13,40,19.90
2015,04,19,13,41,20.00
2015,04,19,13,42,20.10
2015,04,19,13,43,20.10
2015,04,19,13,44,20.20
2015,04,19,13,45,20.20
2015,04,19,13,46,20.30
2015,04,19,13,47,20.30
2015,04,19,13,48,20.40
2015,04,19,13,49,20.40
2015,04,19,13,50,20.50
2015,04,19,13,51,20.50
2015,04,19,13,52,20.50
2015,04,19,13,53,20.60
2015,04,19,13,54,20.60
2015,04,19,13,55,20.60
2015,04,19,13,56,20.70
2015,04,19,13,57,20.70
2015,04,19,13,58,20.80
2015,04,19,13,59,20.80
2015,04,19,14,00,20.90
2015,04,19,14,01,20.90
2015,04,19,14,02,20.90
2015,04,19,14,03,20.90
2015,04,19,14,04,20.90
2015,04,19,14,05,20.90
2015,04,19,14,06,20.90
2015,04,19,14,07,20.80
2015,04,19,14,08,20.80
2015,04,19,14,09,20.70
2015,04,19,14,10,20.70
2015,04,19,14,11,20.70
2015,04,19,14,12,20.70
2015,04,19,14,13,20.70
2015,04,19,14,14,20.70
2015,04,19,14,15,20.70
2015,04,19,14,16,20.70
2015,04,19,14,17,20.70
2015,04,19,14,18,20.70
2015,04,19,14,19,20.70
2015,04,19,14,20,20.70
2015,04,19,14,21,20.70
2015,04,19,14,22,20.70
2015,04,19,14,23,20.70
2015,04,19,14,24,20.70
2015,04,19,14,25,20.70
2015,04,19,14,26,20.70
2015,04,19,14,27,20.80
2015,04,19,14,28,20.80
2015,04,19,14,29,20.70
2015,04,19,14,30,20.70
2015,04,19,14,31,20.70
2015,04,19,14,32,20.60
2015,04,19,14,33,20.50
2015,04,19,14,34,20.50
2015,04,19,14,35,20.50
2015,04,19,14,36,20.60
2015,04,19,14,37,20.60
2015,04,19,14,38,20.60
2015,04,19,14,39,20.70
2015,04,19,14,40,20.70
2015,04,19,14,41,20.80
2015,04,19,14,42,20.80
2015,04,19,14,43,20.90
2015,04,19,14,44,20.90
2015,04,19,14,45,21.00
2015,04,19,14,46,21.00
2015,04,19,14,47,21.10
2015,04,19,14,48,21.10
2015,04,19,14,49,21.20
2015,04,19,14,50,21.20
2015,04,19,14,51,21.20
2015,04,19,14,52,21.20
2015,04,19,14,53,21.20
2015,04,19,14,54,21.20
2015,04,19,14,55,21.20
2015,04,19,14,56,21.30
2015,04,19,14,57,21.30
2015,04,19,14,58,21.30
2015,04,19,14,59,21.30
2015,04,19,15,00,21.40
2015,04,19,15,01,21.40
2015,04,19,15,02,21.40
2015,04,19,15,03,21.40
2015,04,19,15,04,21.40
2015,04,19,15,05,21.50
2015,04,19,15,06,21.50
2015,04,19,15,07,21.60
2015,04,19,15,08,21.60
2015,04,19,15,09,21.70
2015,04,19,15,10,21.70
2015,04,19,15,11,21.70
2015,04,19,15,12,21.70
2015,04,19,15,13,21.70
2015,04,19,15,14,21.70
2015,04,19,15,15,21.70
2015,04,19,15,16,21.70
2015,04,19,15,17,21.60
2015,04,19,15,18,21.60
2015,04,19,15,19,21.60
2015,04,19,15,20,21.50
2015,04,19,15,21,21.40
2015,04,19,15,22,21.40
2015,04,19,15,23,21.30
2015,04,19,15,24,21.30
2015,04,19,15,25,21.30
2015,04,19,15,26,21.20
2015,04,19,15,27,21.20
2015,04,19,15,28,21.10
2015,04,19,15,29,21.00
2015,04,19,15,30,21.00
2015,04,19,15,31,20.90
2015,04,19,15,32,20.90
2015,04,19,15,33,20.90
2015,04,19,15,34,20.90
2015,04,19,15,35,20.90
2015,04,19,15,36,20.90
2015,04,19,15,37,20.90
2015,04,19,15,38,20.80
2015,04,19,15,39,20.80
2015,04,19,15,40,20.90
2015,04,19,15,41,20.90
2015,04,19,15,42,20.90
2015,04,19,15,43,20.90
2015,04,19,15,44,21.00
2015,04,19,15,45,21.10
2015,04,19,15,46,21.10
2015,04,19,15,47,21.20
2015,04,19,15,48,21.20
2015,04,19,15,49,21.20
2015,04,19,15,50,21.20
2015,04,19,15,51,21.20
2015,04,19,15,52,21.20
2015,04,19,15,53,21.20
2015,04,19,15,54,21.20
2015,04,19,15,55,21.10
2015,04,19,15,56,21.10
2015,04,19,15,57,21.10
2015,04,19,15,58,21.00
2015,04,19,15,59,21.00
2015,04,19,16,00,20.90
2015,04,19,16,01,20.80
2015,04,19,16,02,20.80
2015,04,19,16,03,20.60
2015,04,19,16,04,20.50
2015,04,19,16,05,20.50
2015,04,19,16,06,20.40
2015,04,19,16,07,20.40
2015,04,19,16,08,20.40
2015,04,19,16,09,20.50
2015,04,19,16,10,20.50
2015,04,19,16,11,20.50
2015,04,19,16,12,20.60
2015,04,19,16,13,20.60
2015,04,19,16,14,20.60
2015,04,19,16,15,20.60
2015,04,19,16,16,20.60
2015,04,19,16,17,20.60
2015,04,19,16,18,20.50
2015,04,19,16,19,20.40
2015,04,19,16,20,20.40
2015,04,19,16,21,20.40
2015,04,19,16,22,20.40
2015,04,19,16,23,20.40
2015,04,19,16,24,20.40
2015,04,19,16,25,20.40
2015,04,19,16,26,20.40
2015,04,19,16,27,20.40
2015,04,19,16,28,20.40
2015,04,19,16,29,20.40
2015,04,19,16,30,20.30
2015,04,19,16,31,20.30
2015,04,19,16,32,20.30
2015,04,19,16,33,20.30
2015,04,19,16,34,20.30
2015,04,19,16,35,20.30
2015,04,19,16,36,20.30
2015,04,19,16,37,20.30
2015,04,19,16,38,20.30
2015,04,19,16,39,20.20
2015,04,19,16,40,20.20
2015,04,19,16,41,20.20
2015,04,19,16,42,20.20
2015,04,19,16,43,20.10
2015,04,19,16,44,20.10
2015,04,19,16,45,20.10
2015,04,19,16,46,20.00
2015,04,19,16,47,20.00
2015,04,19,16,48,19.90
2015,04,19,16,49,19.90
2015,04,19,16,50,19.90
2015,04,19,16,51,19.80
2015,04,19,16,52,19.70
2015,04,19,16,53,19.60
2015,04,19,16,54,19.50
2015,04,19,16,55,19.50
2015,04,19,16,56,19.40
2015,04,19,16,57,19.40
2015,04,19,16,58,19.40
2015,04,19,16,59,19.30
2015,04,19,17,00,19.30
2015,04,19,17,01,19.30
2015,04,19,17,02,19.30
2015,04,19,17,03,19.30
2015,04,19,17,04,19.30
2015,04,19,17,05,19.30
2015,04,19,17,06,19.30
2015,04,19,17,07,19.30
2015,04,19,17,08,19.30
2015,04,19,17,09,19.40
2015,04,19,17,10,19.40
2015,04,19,17,11,19.40
2015,04,19,17,12,19.40
2015,04,19,17,13,19.40
2015,04,19,17,14,19.40
2015,04,19,17,15,19.30
2015,04,19,17,16,19.30
2015,04,19,17,17,19.30
2015,04,19,17,18,19.30
2015,04,19,17,19,19.30
2015,04,19,17,20,19.30
2015,04,19,17,21,19.30
2015,04,19,17,22,19.30
2015,04,19,17,23,19.30
2015,04,19,17,24,19.30
2015,04,19,17,25,19.30
2015,04,19,17,26,19.20
2015,04,19,17,27,19.20
2015,04,19,17,28,19.20
2015,04,19,17,29,19.20
2015,04,19,17,30,19.20
2015,04,19,17,31,19.20
2015,04,19,17,32,19.20
2015,04,19,17,33,19.20
2015,04,19,17,34,19.20
2015,04,19,17,35,19.20
2015,04,19,17,36,19.20
2015,04,19,17,37,19.10
2015,04,19,17,38,19.00
2015,04,19,17,39,19.00
2015,04,19,17,40,18.90
2015,04,19,17,41,18.90
2015,04,19,17,42,18.80
2015,04,19,17,43,18.80